Weather History for Spirit of St Louis, MO

Change the Weather History Date:

Thursday, April 24, 2014

  Actual Average Record
Temperature  
Mean Temperature 66 °F -  
Max Temperature 78 °F 67 °F 82 °F (2007)
Min Temperature 53 °F 44 °F 33 °F (2005)
Growing Degree Days 16 (Base 50)    
Moisture  
Dew Point 40 °F    
Average Humidity 40    
Maximum Humidity 50    
Minimum Humidity 31    
Precipitation  
Precipitation 0.38 in - - ()
Sea Level Pressure  
Sea Level Pressure 29.73 in    
Wind  
Wind Speed 8 mph (South)    
Max Wind Speed 32 mph    
Max Gust Speed 50 mph    
Visibility 9 miles    
Events Rain    
Averages and records for this station are not official NWS values.
T = Trace of Precipitation, MM = Missing Value Source: NWS Daily Summary

Daily Weather History Graph

Daily Weather History Graph

Search for Another Location

Airport:

Trip Planner

Search our weather history database for the weather conditions in past years. The results will help you decide how hot, cold, wet, or windy it might be!

Date:

Astronomy

Apr. 24, 2014 Rise Set
Actual Time 6:14 AM CDT 7:48 PM CDT
Civil Twilight 5:45 AM CDT 8:16 PM CDT
Nautical Twilight 5:12 AM CDT 8:50 PM CDT
Astronomical Twilight 4:36 AM CDT 9:26 PM CDT
Moon 3:21 AM CDT (4/24) 3:06 PM CDT (4/24)
Length of Visible Light 14h 30m
Length of Day
13h 34m
Waning Crescent, 24% of the Moon is Illuminated
Apr 24
Waning Crescent
Apr 29
New
May 6
First Quarter
May 14
Full
May 21
Last Quarter

Hourly Weather History & Observations

Time (CDT) Temp. Dew Point Humidity Pressure Visibility Wind Dir Wind Speed Gust Speed Precip Events Conditions
12:54 AM 55.9 °F 32.0 °F 40% 29.92 in 10.0 mi ESE 6.9 mph - N/A   Clear
1:54 AM 55.9 °F 32.0 °F 40% 29.89 in 10.0 mi SE 6.9 mph - N/A   Clear
2:54 AM 55.0 °F 32.0 °F 42% 29.87 in 10.0 mi SE 6.9 mph - N/A   Clear
3:54 AM 55.0 °F 32.0 °F 42% 29.86 in 10.0 mi SE 6.9 mph - N/A   Clear
4:54 AM 54.0 °F 32.0 °F 43% 29.87 in 10.0 mi Calm Calm - N/A   Clear
5:54 AM 53.1 °F 33.1 °F 47% 29.86 in 10.0 mi Variable 3.5 mph - N/A   Mostly Cloudy
6:54 AM 53.1 °F 34.0 °F 48% 29.86 in 10.0 mi East 5.8 mph - N/A   Mostly Cloudy
7:54 AM 55.0 °F 34.0 °F 45% 29.84 in 10.0 mi SE 9.2 mph - N/A   Mostly Cloudy
8:54 AM 60.1 °F 35.1 °F 39% 29.80 in 10.0 mi SE 10.4 mph 24.2 mph N/A   Mostly Cloudy
9:54 AM 64.0 °F 37.0 °F 37% 29.80 in 10.0 mi SE 12.7 mph 18.4 mph N/A   Mostly Cloudy
10:54 AM 66.9 °F 37.9 °F 34% 29.80 in 10.0 mi South 11.5 mph - N/A   Mostly Cloudy
11:54 AM 71.1 °F 39.9 °F 32% 29.78 in 10.0 mi SSE 9.2 mph 24.2 mph N/A   Mostly Cloudy
12:54 PM 73.9 °F 43.0 °F 33% 29.73 in 10.0 mi South 10.4 mph 19.6 mph N/A   Mostly Cloudy
1:54 PM 78.1 °F 45.0 °F 31% 29.67 in 10.0 mi SSE 10.4 mph 19.6 mph N/A   Mostly Cloudy
2:54 PM 77.0 °F 46.9 °F 34% 29.62 in 10.0 mi SSE 15.0 mph 24.2 mph N/A   Mostly Cloudy
3:54 PM 77.0 °F 48.9 °F 37% 29.60 in 10.0 mi SSE 11.5 mph 18.4 mph N/A   Mostly Cloudy
4:54 PM 77.0 °F 50.0 °F 39% 29.58 in 10.0 mi SSE 10.4 mph 18.4 mph N/A   Mostly Cloudy
5:54 PM 73.9 °F 50.0 °F 43% 29.61 in 7.0 mi North - - N/A   Overcast
6:00 PM 73.4 °F 53.6 °F 50% 29.63 in 2.5 mi WNW 32.2 mph 49.5 mph 0.04 in   Haze
6:09 PM 73.4 °F 53.6 °F 50% 29.65 in 6.0 mi WNW 18.4 mph 40.3 mph 0.05 in Rain Light Rain
6:54 PM - - N/A% 29.65 in 6.0 mi WNW 9.2 mph - 0.12 in Rain Rain
7:04 PM - - N/A% 29.66 in 3.0 mi West 4.6 mph - 0.04 in Rain Rain
7:54 PM - - N/A% 29.63 in 3.0 mi Calm Calm - 0.17 in Rain Light Rain
8:54 PM - - N/A% 29.64 in 10.0 mi Calm Calm - 0.05 in   Overcast
9:54 PM - - N/A% 29.67 in 10.0 mi WSW 3.5 mph - 0.00 in Rain Light Rain
10:35 PM - - N/A% 29.68 in 10.0 mi Calm Calm - 0.01 in Rain Light Rain
10:54 PM - - N/A% 29.68 in 10.0 mi WSW 4.6 mph - 0.01 in Rain Light Rain
11:01 PM - - N/A% 29.68 in 10.0 mi WSW 4.6 mph - 0.01 in Rain Light Rain
11:13 PM - - N/A% 29.68 in 10.0 mi WSW 4.6 mph - 0.01 in Rain Light Rain
11:21 PM - - N/A% 29.68 in 10.0 mi WSW 6.9 mph - 0.02 in Rain Light Rain
11:43 PM - - N/A% 29.68 in 9.0 mi WNW 12.7 mph - 0.03 in Rain Light Rain
11:54 PM - - N/A% 29.69 in 9.0 mi WNW 16.1 mph 20.7 mph 0.03 in Rain Light Rain